Regional Weather Roundup
Issued by NWS

Home | Current Version | Previous Version | Text Only | Print | Product List | Glossary Off
Versions: 1 2 3 4 5 6 7 8 9 10 11 12 13 14 15 16 17 18 19 20 21 22 23 24 25 26 27 28 29 30 31 32 33 34 35 36 37 38 39 40 41 42 43 44 45 46 47 48 49 50

000
ASUS45 KABQ 192310
RWRNM
WEATHER ROUNDUP FOR NEW MEXICO
NATIONAL WEATHER SERVICE ALBUQUERQUE NM
500 PM MDT SAT APR 19 2014

NOTE: "FAIR" MEANS FEW OR NO CLOUDS BELOW 12,000 FEET AGL WITH NO
       SIGNIFICANT WEATHER OR OBSTRUCTIONS TO VISION.

      THIS PRODUCT IS RELEASED AS TWO VERSIONS.  ONE VERSION NEAR
      THE TOP OF THE HOUR CONTAINING PRELIMINARY DATA FROM ALBUQUERQUE
      AND OTHER STATIONS.  A FINAL VERSION WITH ADDITIONAL DATA IS
      ISSUED ABOUT 10 MINUTES AFTER THE HOUR.

NMZ501-503-504-510>518-200000-
NORTHWEST PLATEAU/NORTHCENTRAL MOUNTAINS

CITY           SKY/WX    TMP DP  RH WIND       PRES   REMARKS
FARMINGTON     SUNNY     67  29  24 W6        30.02S
LOS ALAMOS     DRIZZLE   50  38  63 CALM      30.15S
SANTA FE       LGT RAIN  53  40  61 S7        30.11R
TAOS           CLOUDY    61  28  29 SW15      30.09S
ANGEL FIRE     CLOUDY    48  37  64 S15G21    30.17R

$$
NMZ402-403-502-505>509-200000-
WESTCENTRAL MOUNTAINS/SOUTHWEST MOUNTAINS

CITY           SKY/WX    TMP DP  RH WIND       PRES   REMARKS
GALLUP         CLOUDY    62  28  27 CALM      30.08F
GRANTS         CLOUDY    54  38  55 W17G23    30.11S
SILVER CITY    CLOUDY    59  36  41 SW18G28   30.12R

$$
NMZ407-409-411-412-200000-
SOUTHERN DESERTS

CITY           SKY/WX    TMP DP  RH WIND       PRES   REMARKS
LORDSBURG      CLOUDY    54  46  76 NW16      30.09R
DEMING         CLOUDY    62  46  55 NW16G24   30.06R
LAS CRUCES     CLOUDY    67  40  36 W10       30.05R
HOLLOMAN AFB   PTSUNNY   70  43  37 N6        29.98F
ALAMOGORDO     PTSUNNY   70  41  35 N5        30.00F
T OR C         CLOUDY    63  43  48 SE5       30.03F

$$
NMZ519>523-200000-
CENTRAL VALLEYS/CENTRAL HIGHLANDS

CITY           SKY/WX    TMP DP  RH WIND       PRES   REMARKS
ALBUQUERQUE    PTSUNNY   61  41  47 VRB5      30.07F
DOUBLE EAGLE   PTSUNNY   57  39  51 SE8       30.09S
MORIARTY ARPT  CLOUDY    52  43  71 N3        30.11S
CLINES CORNERS CLOUDY    50  43  77 NE9       30.10F
BELEN          FAIR      61  41  48 CALM      30.06F
SOCORRO        FAIR      63  44  51 CALM      30.05S

$$
NMZ524>526-539-540-200000-
SOUTHCENTRAL MOUNTAINS

CITY           SKY/WX    TMP DP  RH WIND       PRES   REMARKS
RUIDOSO        MOSUNNY   55  43  62 S6        30.12F

$$
NMZ527>531-200000-
NORTHEAST HIGHLANDS/NORTHEAST PLAINS

CITY           SKY/WX    TMP DP  RH WIND       PRES   REMARKS
LAS VEGAS      LGT RAIN  48  44  86 S17       30.14R
RATON          CLOUDY    59  40  49 SW30G37   30.05R
CLAYTON        LGT RAIN  60  45  57 SW16G25   30.03S

$$
NMZ532>537-200000-
EASTCENTRAL PLAINS

CITY           SKY/WX    TMP DP  RH WIND       PRES   REMARKS
TUCUMCARI      HVY RAIN  60  53  77 SW13      30.05S
CANNON AFB     LGT RAIN  56  53  90 SW5       30.08F
CLOVIS AIRPORT CLOUDY    55  50  82 CALM      30.10F

$$
NMZ028-029-538-200000-
SOUTHEAST PLAINS

CITY           SKY/WX    TMP DP  RH WIND       PRES   REMARKS
ROSWELL        MOSUNNY   65  53  65 W3        30.03S
ARTESIA        PTSUNNY   64  54  68 NE5       30.03S
CARLSBAD       CLOUDY    66  53  63 NE6       30.02R
HOBBS          PTSUNNY   64  54  68 NE15      30.04R


$$



USA.gov is the U.S. government's official web portal to all federal, state and local government web resources and services.